[[{"header":{"parameterUnit":"m.s-1","parameterCategory":1,"la1":30.2991,"la2":30.254,"lo1":-89.0895,"lo2":-89.0444,"dy":0.0017,"dx":0.0017,"nx":28,"ny":28,"refTime":"2023-11-12T09:00:00:Z","depth":0,"parameterNumber":2,"parameterNumberName":"U-component_of_WINDS"},"data":[0,0,0,0,0,0,0,0,0,0,0,0,0,0,0,0,0,0,0,0,0,0,0,0,0,0,0,0,0,0,0,0,0,0,0,0,0,0,0,0,0,0,0,0,0,0,0,0,0,0,0,0,0,0,0,0,0,0,-1.5098,-1.5098,0,-1.5115,-1.5115,-1.5116,-1.5071,-1.507,-1.5068,-1.5067,-1.5087,-1.5089,-1.509,0,0,0,0,0,0,0,0,0,0,0,0,0,-1.5028,-1.5029,-1.5098,-1.5098,-1.5098,-1.5115,-1.5115,-1.5116,-1.5071,-1.5069,-1.5068,-1.5066,-1.5086,-1.5088,-1.5091,0,0,0,0,0,0,0,0,0,0,0,0,0,-1.5053,-1.503,-1.5098,-1.5078,-1.5076,-1.5115,-1.5115,-1.5116,-1.5072,-1.5069,-1.5067,-1.5065,-1.5085,-1.5088,-1.5091,-1.515,0,0,-1.5099,-1.5101,0,0,0,0,0,0,0,0,-1.5052,-1.5056,-1.5081,-1.508,-1.5078,-1.5089,-1.5098,-1.5127,-1.5072,-1.5074,-1.5067,-1.5064,-1.5089,-1.5092,-1.51,-1.5151,-1.5152,-1.51,-1.5101,-1.5102,-1.5103,0,0,0,0,0,0,0,-1.505,-1.5055,-1.5105,-1.5081,-1.5079,-1.5069,-1.507,-1.5103,-1.5093,-1.5073,-1.507,-1.5073,-1.5088,-1.5097,-1.51,-1.5152,-1.51,-1.5102,-1.5104,-1.5105,-1.5254,-1.5256,0,0,0,0,0,0,-1.5051,-1.5054,-1.5104,-1.5105,-1.5059,-1.5072,-1.5073,-1.5087,-1.5093,-1.5091,-1.5074,-1.507,-1.5093,-1.5097,-1.51,-1.5171,-1.5102,-1.5105,-1.5107,-1.5252,-1.5254,-1.5257,0,0,0,0,0,0,-1.5049,-1.5056,-1.5104,-1.5079,-1.5084,-1.5075,-1.5092,-1.5089,-1.5098,-1.5093,-1.5092,-1.5085,-1.5092,-1.5096,-1.5138,-1.5171,-1.5106,-1.5109,-1.5249,-1.5253,-1.5256,-1.5312,0,0,0,0,0,0,-1.5047,-1.5055,-1.5077,-1.5079,-1.5085,-1.5141,-1.5094,-1.5091,-1.5102,-1.5097,-1.5103,-1.5102,-1.509,-1.5134,-1.5141,-1.5174,-1.5111,-1.5246,-1.5251,-1.5255,-1.5308,-1.5317,-1.5326,0,0,0,0,0,-1.5045,-1.5093,-1.5079,-1.5085,-1.5113,-1.5143,-1.5146,-1.5131,-1.5105,-1.5128,-1.5125,-1.5102,-1.5166,-1.5139,-1.5146,-1.518,-1.5244,-1.5249,-1.5254,-1.5303,-1.5315,-1.5325,0,0,0,0,0,0,-1.5096,-1.5093,-1.5077,-1.5127,-1.5135,-1.5135,-1.5163,-1.5144,-1.5161,-1.5156,-1.5137,-1.5138,-1.5184,-1.5186,-1.5156,-1.5238,-1.5201,-1.5207,-1.5236,-1.5247,-1.5256,-1.5255,-1.5113,0,0,0,0,0,-1.5113,-1.5137,-1.5133,-1.5177,-1.5182,-1.5172,-1.5185,-1.5172,-1.518,-1.5184,-1.5184,-1.5194,-1.5216,-1.5231,-1.5251,-1.5307,-1.5308,-1.5334,-1.5343,-1.535,-1.5357,-1.5388,-1.5399,-1.5274,-1.5274,-1.5274,0,0,-1.5148,-1.515,-1.5166,-1.5188,-1.5193,-1.5219,-1.5176,-1.5205,-1.5224,-1.5189,-1.5228,-1.5229,-1.5238,-1.5287,-1.5309,-1.529,-1.5392,-1.5357,-1.5363,-1.5366,-1.5394,-1.5406,-1.5417,-1.5278,-1.5277,-1.5276,0,0,-1.5227,-1.523,-1.5267,-1.5273,-1.5281,-1.5274,-1.5283,-1.5285,-1.5284,-1.5323,-1.5297,-1.532,-1.5358,-1.5366,-1.5375,-1.5456,-1.5436,-1.5463,-1.5511,-1.5541,-1.5551,-1.556,-1.559,-1.5601,-1.5469,-1.5469,-1.5469,0,-1.527,-1.5308,-1.5289,-1.5321,-1.5331,-1.5299,-1.5338,-1.5344,-1.5359,-1.5367,-1.5345,-1.5393,-1.5397,-1.5448,-1.5468,-1.5475,-1.5486,-1.5463,-1.5551,-1.5559,-1.5567,-1.5596,-1.5607,-1.5473,-1.5472,-1.5472,-1.5472,0,-1.5362,-1.5388,-1.5418,-1.5432,-1.5446,-1.5481,-1.5468,-1.5484,-1.547,-1.5465,-1.5506,-1.5509,-1.553,-1.554,-1.5527,-1.559,-1.5578,-1.5554,-1.5516,-1.5583,-1.561,-1.562,-1.5478,-1.5476,-1.5475,-1.5475,0,0,-1.5475,-1.5477,-1.5489,-1.5495,-1.5501,-1.5521,-1.5555,-1.5574,-1.5589,-1.5599,-1.5628,-1.566,-1.5638,-1.5648,-1.5636,-1.5662,-1.5727,-1.5634,-1.5634,-1.5653,-1.5798,-1.5817,-1.583,-1.5713,-1.5715,-1.5716,-1.5797,0,-1.5553,-1.561,-1.5594,-1.5651,-1.5676,-1.5645,-1.5674,-1.5682,-1.5678,-1.5699,-1.5694,-1.5719,-1.5686,-1.5693,-1.5717,-1.5714,-1.5756,-1.5708,-1.574,-1.5742,-1.5741,-1.5844,-1.5865,-1.5941,-1.5808,-1.5809,-1.581,0,-1.5653,-1.5667,-1.5727,-1.5729,-1.5739,-1.5765,-1.5782,-1.5802,-1.5809,-1.5805,-1.5816,-1.5798,-1.5831,-1.5792,-1.5838,-1.5806,-1.5818,-1.5818,-1.5821,-1.5825,-1.5782,-1.5853,-1.5965,-1.5977,-1.5826,-1.5825,-1.5824,0,-1.5732,-1.5765,-1.5806,-1.5812,-1.5815,-1.5834,-1.5836,-1.5841,-1.5854,-1.5869,-1.5877,-1.5895,-1.5906,-1.592,-1.5908,-1.588,-1.5957,-1.5916,-1.5955,-1.5956,-1.5975,-1.5974,-1.6093,-1.5979,-1.5979,-1.5979,-1.5979,0,-1.5822,-1.5861,-1.5841,-1.5866,-1.5908,-1.5889,-1.5931,-1.593,-1.5935,-1.5959,-1.5933,-1.5957,-1.5938,-1.5961,-1.5951,-1.5992,-1.5996,-1.5994,-1.5992,-1.5998,-1.5998,-1.6007,-1.6002,-1.5982,-1.5981,-1.5981,-1.598,0,-1.5918,-1.5906,-1.5949,-1.5947,-1.5948,-1.5979,-1.5978,-1.6002,-1.5995,-1.6027,-1.6033,-1.6024,-1.6049,-1.6037,-1.6063,-1.6057,-1.611,-1.6099,-1.6107,-1.6105,-1.6146,-1.6143,-1.6275,-1.6293,-1.6167,-1.6168,-1.6169,0,-1.5978,-1.6007,-1.6008,-1.6023,-1.6027,-1.605,-1.6063,-1.6044,-1.6059,-1.6069,-1.6092,-1.6114,-1.6131,-1.6173,-1.6169,-1.6189,-1.6179,-1.6224,-1.6182,-1.6188,-1.6182,-1.6181,-1.6185,-1.6234,-1.6235,-1.6236,-1.6237,0,-1.6086,-1.6078,-1.6097,-1.6115,-1.613,-1.6143,-1.6153,-1.6167,-1.6149,-1.6166,-1.6191,-1.6204,-1.6231,-1.6254,-1.6271,-1.6274,-1.6254,-1.625,-1.6261,-1.6268,-1.6273,-1.6273,-1.6132,-1.6248,-1.6247,-1.6246,-1.6245,-1.6245,-1.6167,-1.6191,-1.6196,-1.6218,-1.6224,-1.6234,-1.6256,-1.6252,-1.6272,-1.6292,-1.628,-1.631,-1.6316,-1.6337,-1.6343,-1.6366,-1.6348,-1.6363,-1.6367,-1.6371,-1.6378,-1.6267,-1.6369,-1.6368,-1.6368,-1.6368,-1.6368,0,-1.6275,-1.6276,-1.6297,-1.6312,-1.6329,-1.6307,-1.6317,-1.6333,-1.636,-1.6367,-1.6384,-1.6413,-1.6435,-1.6432,-1.6452,-1.6472,-1.6463,-1.6478,-1.6477,-1.6479,-1.6391,-1.6381,-1.6485,-1.6485,-1.6485,-1.6485,-1.6485,-1.6485,-1.6333,-1.6374,-1.6367,-1.641,-1.6411,-1.6439,-1.6447,-1.6457,-1.6463,-1.6496,-1.6514,-1.6511,-1.6515,-1.6535,-1.6554,-1.6553,-1.6563,-1.6582,-1.6577,-1.6496,-1.6485,-1.6474,-1.6464,-1.6583,-1.6583,-1.6662,-1.6663,-1.6664]},{"header":{"parameterUnit":"m.s-1","parameterCategory":1,"la1":30.2991,"la2":30.254,"lo1":-89.0895,"lo2":-89.0444,"dy":0.0017,"dx":0.0017,"nx":28,"ny":28,"refTime":"2023-11-12T09:00:00:Z","depth":0,"parameterNumber":3,"parameterNumberName":"V-component_of_WINDS"},"data":[0,0,0,0,0,0,0,0,0,0,0,0,0,0,0,0,0,0,0,0,0,0,0,0,0,0,0,0,0,0,0,0,0,0,0,0,0,0,0,0,0,0,0,0,0,0,0,0,0,0,0,0,0,0,0,0,0,0,-3.7636,-3.7636,0,-3.7696,-3.7697,-3.7698,-3.767,-3.7669,-3.7667,-3.7666,-3.7724,-3.7727,-3.773,0,0,0,0,0,0,0,0,0,0,0,0,0,-3.7492,-3.7495,-3.7635,-3.7636,-3.7637,-3.7696,-3.7697,-3.7698,-3.7671,-3.7669,-3.7667,-3.7665,-3.7723,-3.7727,-3.773,0,0,0,0,0,0,0,0,0,0,0,0,0,-3.7554,-3.7496,-3.7635,-3.7631,-3.7631,-3.7696,-3.7697,-3.7698,-3.7671,-3.7669,-3.7667,-3.7665,-3.7722,-3.7726,-3.7731,-3.7803,0,0,-3.7744,-3.7746,0,0,0,0,0,0,0,0,-3.755,-3.7559,-3.7631,-3.7631,-3.7632,-3.7674,-3.7668,-3.7733,-3.7672,-3.7656,-3.7666,-3.7663,-3.7709,-3.7714,-3.773,-3.7805,-3.7808,-3.7745,-3.7747,-3.7749,-3.775,0,0,0,0,0,0,0,-3.7546,-3.7556,-3.7659,-3.7632,-3.7632,-3.7624,-3.7631,-3.768,-3.7694,-3.7657,-3.7655,-3.7663,-3.7709,-3.7726,-3.7732,-3.7809,-3.7745,-3.7748,-3.7751,-3.7753,-3.7946,-3.7948,0,0,0,0,0,0,-3.7542,-3.7553,-3.7657,-3.7661,-3.7585,-3.7629,-3.7636,-3.7662,-3.7693,-3.7696,-3.7665,-3.7661,-3.772,-3.7727,-3.7734,-3.782,-3.7749,-3.7753,-3.7756,-3.7943,-3.7946,-3.7949,0,0,0,0,0,0,-3.754,-3.7552,-3.7655,-3.7607,-3.7619,-3.7634,-3.7664,-3.7665,-3.7682,-3.7699,-3.7701,-3.768,-3.7718,-3.7727,-3.7786,-3.7822,-3.7755,-3.7759,-3.7941,-3.7944,-3.7948,-3.7994,0,0,0,0,0,0,-3.7536,-3.7551,-3.758,-3.7608,-3.7622,-3.7708,-3.7666,-3.7667,-3.769,-3.7687,-3.7715,-3.7717,-3.7717,-3.778,-3.7791,-3.7827,-3.7763,-3.7937,-3.7942,-3.7947,-3.7989,-3.7999,-3.8007,0,0,0,0,0,-3.7531,-3.7589,-3.7581,-3.7594,-3.7658,-3.771,-3.7718,-3.7718,-3.7693,-3.7722,-3.7733,-3.7716,-3.7816,-3.7786,-3.7798,-3.7836,-3.7935,-3.7941,-3.7946,-3.7985,-3.7997,-3.8007,0,0,0,0,0,0,-3.7563,-3.7593,-3.7584,-3.7654,-3.768,-3.7705,-3.7741,-3.773,-3.7763,-3.7758,-3.7755,-3.7762,-3.7823,-3.7835,-3.7801,-3.7907,-3.7872,-3.788,-3.7897,-3.7908,-3.7917,-3.7913,-3.7766,0,0,0,0,0,-3.7579,-3.762,-3.7643,-3.7702,-3.7716,-3.7726,-3.7749,-3.7747,-3.7773,-3.7783,-3.7799,-3.7824,-3.7861,-3.7885,-3.792,-3.7991,-3.7996,-3.8023,-3.8032,-3.8039,-3.8046,-3.8084,-3.8096,-3.7968,-3.7967,-3.7967,0,0,-3.7611,-3.7632,-3.7658,-3.7709,-3.7729,-3.7771,-3.7735,-3.7781,-3.7811,-3.779,-3.7847,-3.7859,-3.7886,-3.7952,-3.7981,-3.7964,-3.8083,-3.8046,-3.8051,-3.8055,-3.8091,-3.8103,-3.8114,-3.7971,-3.7971,-3.797,0,0,-3.7691,-3.7711,-3.7763,-3.7784,-3.7816,-3.7822,-3.7835,-3.7862,-3.787,-3.7927,-3.7912,-3.7947,-3.8011,-3.8032,-3.805,-3.8139,-3.8125,-3.815,-3.8196,-3.8234,-3.8244,-3.8253,-3.8284,-3.8296,-3.8157,-3.8157,-3.8157,0,-3.7727,-3.779,-3.7791,-3.7838,-3.7861,-3.7845,-3.7897,-3.7917,-3.7957,-3.7973,-3.7953,-3.8033,-3.805,-3.812,-3.8142,-3.8158,-3.8171,-3.8147,-3.8243,-3.8252,-3.826,-3.829,-3.8302,-3.816,-3.816,-3.816,-3.8159,0,-3.7833,-3.7877,-3.7915,-3.7956,-3.7983,-3.8032,-3.8039,-3.8066,-3.8062,-3.807,-3.8129,-3.8149,-3.8188,-3.8205,-3.82,-3.8274,-3.8262,-3.8243,-3.8207,-3.8275,-3.8303,-3.8315,-3.8164,-3.8163,-3.8162,-3.8162,0,0,-3.7935,-3.7977,-3.7991,-3.801,-3.8043,-3.8076,-3.8124,-3.8164,-3.8187,-3.8216,-3.8256,-3.831,-3.8293,-3.8314,-3.8311,-3.8344,-3.8413,-3.8321,-3.8321,-3.8337,-3.8496,-3.8511,-3.8524,-3.8404,-3.8407,-3.8408,-3.8494,0,-3.8018,-3.8104,-3.8106,-3.8185,-3.8226,-3.8211,-3.8253,-3.8277,-3.8286,-3.8321,-3.833,-3.8369,-3.8343,-3.8356,-3.8388,-3.8398,-3.8445,-3.8392,-3.8441,-3.8442,-3.8435,-3.8539,-3.8555,-3.8635,-3.8505,-3.8507,-3.8508,0,-3.8126,-3.816,-3.8243,-3.8271,-3.8288,-3.8326,-3.8363,-3.8397,-3.8424,-3.8428,-3.8452,-3.8445,-3.8493,-3.8456,-3.8522,-3.8485,-3.8505,-3.8513,-3.8517,-3.8521,-3.848,-3.8547,-3.866,-3.8672,-3.8525,-3.8524,-3.8523,0,-3.8193,-3.8259,-3.8318,-3.8334,-3.8368,-3.8395,-3.841,-3.8435,-3.8459,-3.849,-3.8506,-3.8542,-3.8561,-3.8589,-3.8591,-3.8564,-3.8658,-3.862,-3.8662,-3.8662,-3.8682,-3.8681,-3.8801,-3.8695,-3.8695,-3.8694,-3.8694,0,-3.8286,-3.8337,-3.8348,-3.8384,-3.8441,-3.8442,-3.8498,-3.8511,-3.8533,-3.8571,-3.8559,-3.8594,-3.8595,-3.8631,-3.8633,-3.8687,-3.8696,-3.87,-3.87,-3.8701,-3.8701,-3.8714,-3.8709,-3.8698,-3.8697,-3.8696,-3.8696,0,-3.837,-3.838,-3.8443,-3.847,-3.8478,-3.8519,-3.8542,-3.8576,-3.8584,-3.8631,-3.8642,-3.8655,-3.8696,-3.8701,-3.8748,-3.875,-3.8815,-3.8809,-3.8807,-3.8806,-3.8847,-3.8843,-3.898,-3.8998,-3.888,-3.8881,-3.8882,0,-3.8429,-3.8469,-3.8501,-3.8526,-3.8543,-3.8583,-3.8608,-3.861,-3.8636,-3.867,-3.87,-3.874,-3.8773,-3.8839,-3.8851,-3.8887,-3.8882,-3.8927,-3.8887,-3.8888,-3.8883,-3.8881,-3.8885,-3.8935,-3.8937,-3.8938,-3.8938,0,-3.8532,-3.8535,-3.8572,-3.8611,-3.8641,-3.8672,-3.87,-3.8721,-3.8726,-3.8756,-3.8799,-3.8824,-3.8873,-3.8913,-3.8949,-3.8963,-3.8952,-3.8951,-3.8963,-3.8964,-3.8962,-3.8964,-3.8828,-3.8948,-3.8947,-3.8946,-3.8946,-3.8945,-3.8606,-3.864,-3.8669,-3.8711,-3.8733,-3.876,-3.8793,-3.8806,-3.8842,-3.8884,-3.8882,-3.8929,-3.8955,-3.9002,-3.9019,-3.9055,-3.904,-3.9056,-3.9061,-3.9065,-3.9069,-3.8956,-3.9061,-3.9061,-3.9061,-3.9061,-3.906,0,-3.8709,-3.8727,-3.8765,-3.8806,-3.8839,-3.8826,-3.8857,-3.8885,-3.8927,-3.8953,-3.8985,-3.9034,-3.9073,-3.9089,-3.9127,-3.9152,-3.9148,-3.9162,-3.916,-3.9164,-3.908,-3.9067,-3.9165,-3.9165,-3.9165,-3.9165,-3.9165,-3.9165,-3.8766,-3.8825,-3.8831,-3.89,-3.8917,-3.8964,-3.8983,-3.9007,-3.9028,-3.9084,-3.9117,-3.9127,-3.9149,-3.9188,-3.9223,-3.9226,-3.9241,-3.9257,-3.9258,-3.918,-3.917,-3.916,-3.9147,-3.926,-3.926,-3.9339,-3.934,-3.934]}]]